Overview Statistics Trail Chart Weather Telemetry Raw packets
 

This is the latest recevied weather packets stored in our database for station/object N9BLE. If no packets are shown the sender has not sent any weather packets the latest 10 day(s).

<< 34 35 36 37 38 39 40 >>
Time Temp. Humidity Pressure Rain* Wind** Luminosity Snow
1777811146 6.67° C 76% 1017.8 hPa 0 mm - 54 W/m² -
1777810843 6.67° C 77% 1017.8 hPa 0 mm - 46 W/m² -
1777810540 6.67° C 77% 1017.8 hPa 0 mm - 43 W/m² -
1777810237 6.67° C 77% 1017.8 hPa 0 mm - 40 W/m² -
1777809933 6.67° C 77% 1017.9 hPa 0 mm - 36 W/m² -
1777809632 6.67° C 77% 1017.8 hPa 0 mm - 36 W/m² -
1777809329 6.67° C 78% 1017.8 hPa 0 mm - 32 W/m² -
1777809026 6.11° C 78% 1017.7 hPa 0 mm - 24 W/m² -
1777808723 6.11° C 78% 1017.5 hPa 0 mm - 21 W/m² -
1777808420 6.11° C 78% 1017.7 hPa 0 mm - 21 W/m² -
1777808118 6.11° C 78% 1017.4 hPa 0 mm - 20 W/m² -
1777807816 6.11° C 79% 1017.3 hPa 0 mm - 21 W/m² -
1777807514 6.11° C 79% 1017.3 hPa 0 mm - 22 W/m² -
1777807227 5.56° C 79% 1017.3 hPa 0 mm - 18 W/m² -
1777806906 5.56° C 79% 1017.3 hPa 0 mm - 17 W/m² -
1777806603 5.56° C 79% 1017.2 hPa 0 mm - 13 W/m² -
1777806298 5.56° C 79% 1017.2 hPa 0 mm - 8 W/m² -
1777805997 5.56° C 79% 1017.3 hPa 0 mm - 6 W/m² -
1777805692 5.56° C 78% 1017.3 hPa 0 mm - 4 W/m² -
1777805389 5.56° C 77% 1017.3 hPa 0 mm - 3 W/m² -
1777805088 5.56° C 76% 1017.4 hPa 0 mm - 1 W/m² -
1777804785 5.56° C 76% 1017.5 hPa 0 mm - 1 W/m² -
1777804483 5.56° C 76% 1017.5 hPa 0 mm - 0 W/m² -
1777804179 5.56° C 77% 1017.5 hPa 0 mm - 0 W/m² -
1777803877 5.56° C 76% 1017.4 hPa 0 mm - 0 W/m² -

* Rain latest hour (hover to see other rain measurements)
** Current wind speed in m/s (hover to see current wind gust speed)